Hourly Weather Oruro

Today, 27 October, Tuesday

Time Temperature Precipitation Wind Pressure Humidity
00:00 +9°C° 0 mm 5 mps 476 mmHg 61%
01:00 +9°C° 0 mm 3 mps 476 mmHg 62%
02:00 +9°C° 0 mm 2 mps 476 mmHg 62%
03:00 +9°C° 0 mm 2 mps 475 mmHg 64%
04:00 +8°C° 0 mm 2 mps 475 mmHg 67%
05:00 +8°C° 0 mm 2 mps 475 mmHg 69%
06:00 +9°C° 0 mm 2 mps 475 mmHg 64%
07:00 +9°C° 0 mm 2 mps 476 mmHg 59%
08:00 +10°C° 0 mm 3 mps 477 mmHg 54%
09:00 +12°C° 0 mm 3 mps 478 mmHg 45%
10:00 +13°C° 0 mm 3 mps 478 mmHg 35%
11:00 +16°C° 0 mm 3 mps 479 mmHg 26%
12:00 +17°C° 0 mm 4 mps 479 mmHg 23%
13:00 +18°C° 0 mm 4 mps 479 mmHg 19%
14:00 +19°C° 0 mm 4 mps 479 mmHg 16%
15:00 +19°C° 0 mm 5 mps 478 mmHg 14%
16:00 +19°C° 0 mm 5 mps 478 mmHg 12%
17:00 +19°C° 0 mm 6 mps 478 mmHg 10%
18:00 +16°C° 0 mm 7 mps 478 mmHg 11%
19:00 +15°C° 0 mm 8 mps 477 mmHg 11%
20:00 +12°C° 0 mm 9 mps 477 mmHg 12%
21:00 +11°C° 0 mm 7 mps 477 mmHg 14%
22:00 +10°C° 0 mm 5 mps 476 mmHg 16%
23:00 +9°C° 0 mm 3 mps 476 mmHg 19%

Tomorrow, 28 October, Wednesday

Time Temperature Precipitation Wind Pressure Humidity
00:00 +8°C° 0 mm 3 mps 475 mmHg 20%
01:00 +7°C° 0 mm 3 mps 474 mmHg 21%
02:00 +5°C° 0 mm 3 mps 474 mmHg 22%
03:00 +6°C° 0 mm 2 mps 473 mmHg 22%
04:00 +5°C° 0 mm 2 mps 473 mmHg 22%
05:00 +5°C° 0 mm 1 mps 472 mmHg 22%
06:00 +5°C° 0 mm 2 mps 473 mmHg 20%
07:00 +6°C° 0 mm 2 mps 474 mmHg 17%
08:00 +7°C° 0 mm 2 mps 475 mmHg 15%
09:00 +9°C° 0 mm 2 mps 476 mmHg 13%
10:00 +11°C° 0 mm 3 mps 477 mmHg 11%
11:00 +12°C° 0 mm 3 mps 478 mmHg 9%
12:00 +14°C° 0 mm 4 mps 478 mmHg 8%
13:00 +15°C° 0 mm 4 mps 478 mmHg 8%
14:00 +16°C° 0 mm 5 mps 478 mmHg 7%
15:00 +16°C° 0 mm 5 mps 478 mmHg 7%
16:00 +17°C° 0 mm 5 mps 478 mmHg 7%
17:00 +17°C° 0 mm 5 mps 478 mmHg 7%
18:00 +15°C° 0 mm 5 mps 477 mmHg 9%
19:00 +14°C° 0 mm 6 mps 477 mmHg 11%
20:00 +11°C° 0 mm 6 mps 476 mmHg 14%
21:00 +10°C° 0 mm 5 mps 476 mmHg 16%
22:00 +10°C° 0 mm 4 mps 476 mmHg 19%
23:00 +9°C° 0 mm 2 mps 475 mmHg 21%

Day after tomorrow, 29 October, Thursday

Time Temperature Precipitation Wind Pressure Humidity
00:00 +8°C° 0 mm 2 mps 475 mmHg 23%
01:00 +7°C° 0 mm 2 mps 474 mmHg 24%
02:00 +7°C° 0 mm 2 mps 473 mmHg 25%
03:00 +6°C° 0 mm 2 mps 473 mmHg 24%
04:00 +5°C° 0 mm 2 mps 473 mmHg 24%
05:00 +4°C° 0 mm 2 mps 473 mmHg 23%
06:00 +7°C° 0 mm 1 mps 474 mmHg 19%
07:00 +8°C° 0 mm 1 mps 475 mmHg 15%
08:00 +10°C° 0 mm 1 mps 476 mmHg 12%
09:00 +11°C° 0 mm 1 mps 477 mmHg 11%
10:00 +13°C° 0 mm 1 mps 478 mmHg 10%
11:00 +14°C° 0 mm 1 mps 479 mmHg 8%
12:00 +16°C° 0 mm 3 mps 479 mmHg 9%
13:00 +17°C° 0 mm 4 mps 479 mmHg 9%
14:00 +17°C° 0 mm 5 mps 479 mmHg 9%
15:00 +17°C° 0 mm 6 mps 479 mmHg 9%
16:00 +19°C° 0 mm 6 mps 479 mmHg 9%
17:00 +19°C° 0 mm 6 mps 479 mmHg 10%
18:00 +16°C° 0 mm 5 mps 478 mmHg 14%
19:00 +14°C° 0 mm 5 mps 478 mmHg 19%
20:00 +13°C° 0 mm 4 mps 477 mmHg 23%
21:00 +12°C° 0 mm 3 mps 477 mmHg 21%
22:00 +11°C° 0 mm 3 mps 477 mmHg 20%
23:00 +10°C° 0 mm 3 mps 477 mmHg 18%

30 October, Friday

Time Temperature Precipitation Wind Pressure Humidity
00:00 +9°C° 0 mm 2 mps 477 mmHg 20%
01:00 +8°C° 0 mm 2 mps 476 mmHg 22%
02:00 +7°C° 0 mm 2 mps 475 mmHg 24%
03:00 +7°C° 0 mm 2 mps 475 mmHg 25%
04:00 +6°C° 0 mm 2 mps 474 mmHg 26%
05:00 +5°C° 0 mm 2 mps 474 mmHg 27%
06:00 +7°C° 0 mm 1 mps 475 mmHg 24%
07:00 +8°C° 0 mm 1 mps 476 mmHg 22%
08:00 +9°C° 0 mm 1 mps 477 mmHg 19%
09:00 +11°C° 0 mm 1 mps 478 mmHg 17%
10:00 +13°C° 0 mm 2 mps 478 mmHg 14%
11:00 +14°C° 0 mm 2 mps 479 mmHg 12%
12:00 +16°C° 0 mm 3 mps 479 mmHg 11%
13:00 +17°C° 0 mm 4 mps 480 mmHg 11%
14:00 +19°C° 0 mm 5 mps 480 mmHg 10%
15:00 +19°C° 0 mm 5 mps 480 mmHg 10%
16:00 +19°C° 0 mm 4 mps 480 mmHg 10%
17:00 +19°C° 0 mm 4 mps 480 mmHg 10%
18:00 +17°C° 0 mm 4 mps 479 mmHg 24%
19:00 +13°C° 0 mm 5 mps 478 mmHg 38%
20:00 +10°C° 0 mm 5 mps 477 mmHg 52%
21:00 +9°C° 0 mm 5 mps 477 mmHg 56%
22:00 +10°C° 0 mm 4 mps 477 mmHg 60%
23:00 +8°C° 0 mm 4 mps 477 mmHg 64%

31 October, Saturday

Time Temperature Precipitation Wind Pressure Humidity
00:00 +9°C° 0 mm 3 mps 477 mmHg 64%
01:00 +8°C° 0 mm 3 mps 476 mmHg 65%
02:00 +8°C° 0 mm 2 mps 476 mmHg 65%
03:00 +7°C° 0 mm 2 mps 475 mmHg 68%
04:00 +7°C° 0 mm 2 mps 475 mmHg 70%
05:00 +6°C° 0 mm 2 mps 475 mmHg 72%
06:00 +7°C° 0 mm 2 mps 476 mmHg 65%
07:00 +8°C° 0 mm 2 mps 476 mmHg 59%
08:00 +8°C° 0 mm 3 mps 477 mmHg 52%
09:00 +10°C° 0 mm 3 mps 478 mmHg 44%
10:00 +11°C° 0 mm 4 mps 479 mmHg 36%
11:00 +13°C° 0 mm 4 mps 479 mmHg 27%
12:00 +14°C° 0 mm 4 mps 480 mmHg 24%
13:00 +17°C° 0 mm 4 mps 480 mmHg 20%
14:00 +18°C° 0 mm 4 mps 480 mmHg 17%
15:00 +18°C° 0 mm 4 mps 480 mmHg 17%
16:00 +18°C° 0 mm 3 mps 480 mmHg 17%
17:00 +18°C° 0 mm 3 mps 480 mmHg 17%
18:00 +17°C° 0 mm 3 mps 479 mmHg 25%
19:00 +14°C° 0 mm 4 mps 478 mmHg 34%
20:00 +12°C° 0 mm 5 mps 478 mmHg 42%
21:00 +12°C° 0 mm 4 mps 478 mmHg 48%
22:00 +11°C° 0 mm 3 mps 478 mmHg 53%
23:00 +10°C° 0 mm 2 mps 478 mmHg 59%

1 November, Sunday

Time Temperature Precipitation Wind Pressure Humidity
00:00 +9°C° 0 mm 2 mps 477 mmHg 59%
01:00 +9°C° 0 mm 2 mps 477 mmHg 59%
02:00 +9°C° 0 mm 1 mps 476 mmHg 60%
03:00 +8°C° 0 mm 1 mps 476 mmHg 62%
04:00 +8°C° 0 mm 1 mps 475 mmHg 65%
05:00 +7°C° 0 mm 1 mps 475 mmHg 67%
06:00 +8°C° 0 mm 1 mps 476 mmHg 65%
07:00 +9°C° 0 mm 1 mps 476 mmHg 62%
08:00 +8°C° 0 mm 2 mps 477 mmHg 60%
09:00 +10°C° 0 mm 2 mps 478 mmHg 48%
10:00 +13°C° 0 mm 2 mps 478 mmHg 37%
11:00 +14°C° 0 mm 2 mps 479 mmHg 26%
12:00 +16°C° 0 mm 2 mps 479 mmHg 23%
13:00 +17°C° 0 mm 2 mps 479 mmHg 20%
14:00 +18°C° 0 mm 2 mps 479 mmHg 17%
15:00 +18°C° 0 mm 2 mps 479 mmHg 17%
16:00 +18°C° 0 mm 2 mps 479 mmHg 17%
17:00 +18°C° 0 mm 2 mps 478 mmHg 17%
18:00 +17°C° 0 mm 3 mps 478 mmHg 25%
19:00 +14°C° 0 mm 5 mps 477 mmHg 34%
20:00 +11°C° 0 mm 6 mps 477 mmHg 43%
21:00 +10°C° 0 mm 5 mps 477 mmHg 48%
22:00 +11°C° 0 mm 4 mps 477 mmHg 53%
23:00 +10°C° 0 mm 3 mps 477 mmHg 58%
Show more